Orbital Elements at Epoch 2459000.5 (2020-May-31.0) TDB
Reference: JPL 12 (heliocentric ecliptic J2000)
Element | Value | Uncertainty (1-sigma) | Units |
e | .1412233384184051 | 5.4248e-08 | |
a | 3.125501717867293 | 2.4058e-08 | au |
q | 2.684107931037614 | 1.701e-07 | au |
i | 14.40691293577091 | 6.1205e-06 | deg |
node | 186.179086205324 | 1.8907e-05 | deg |
peri | 41.60546963261311 | 2.783e-05 | deg |
M | 5.124843446814894 | 1.7172e-05 | deg |
tp | 2458971.768642756336 (2020-May-02.26864276) | 9.6375e-05 | TDB |
period | 2018.264307009724 5.53 | 2.3303e-05 6.38e-08 | d yr |
n | .1783710878449705 | 2.0595e-09 | deg/d |
Q | 3.566895504696971 | 2.7455e-08 | au |
|
| | Orbit Determination Parameters
Additional Information
|